星链-36296(STARLINK-36296)

导读

STARLINK-36296(NORAD编号68380)是SpaceX星链(Starlink)低轨互联网星座中的一颗卫星。星链计划是SpaceX于2015年启动的全球低轨卫星互联网项目,计划总计部署超4万颗卫星,提供覆盖全球的高速互联网接入服务。 该卫星运行于近地轨道,属于星链星座组网卫星,承担天基通信传输任务,可为偏远地区、海洋、航空等场景提供宽带网络服务。 2026年SpaceX启动降轨计划,将包括该卫星在内的约4400颗星链卫星轨道高度从550公里降至480公里,以此降低碰撞风险,减少太空碎片隐患,提升太空运行安全。

基本信息
目录编号:
68380
目录名称:
STARLINK-36296
国际标识:
2026-063A
轨道中心:
EARTH
卫星名称:
星链-36296
卫星全名:
星链-36296(STARLINK-36296)
卫星状态:
在轨 (已飞行79 天)
发射日期:
2026-03-26 UTC
国别 :
美国 (US)
星等 :
--
轨道信息
数据来源 国际轨道数据
星历时间: 2026-06-13T04:00:02+0800
5小时前
查看轨道信息
半长轴: 6791.388km
偏心率: 0.0002019
轨道倾角: 97.285°
近地点辐角 103.069°
升交点赤经 308.457°
平近点角 51.450°
近地点: 411.879km
远地点: 414.623km
周期: 92.832分钟
每日圈数: 15.511899
详细信息
固有亮度:
5
最大亮度:
2.5
卫星平台:
Starlink V1.0
覆盖范围:
全球
运营商:
太空探索技术公司
运营商所在国:
美国
制造商(研发单位):
太空探索技术公司
制造商所在国:
美国
使用方式:
暂无
卫星简介
Starlink 计划是 SpaceX 推出的全球卫星互联网项目,通过发射低轨道卫星,为全球尤其是偏远地区提供高速、低延迟的互联网服务。自 2019 年起,Starlink 已部署数千颗卫星,旨在缩小全球数字鸿沟,推动互联网普及。该项目还为军事、航空等行业提供通信支持,带来广泛经济效益。
2D轨道图
3D轨道图
轨道高度分析图
轨道倾角分析图
轨道综合分析图
查看轨道综合分析图